[[{"header":{"parameterUnit":"m.s-1","parameterCategory":1,"la1":30.2991,"la2":30.254,"lo1":-89.0895,"lo2":-89.0444,"dy":0.0017,"dx":0.0017,"nx":28,"ny":28,"refTime":"2024-05-16T21:00:00:Z","depth":0,"parameterNumber":2,"parameterNumberName":"U-component_of_WINDS"},"data":[0,0,0,0,0,0,0,0,0,0,0,0,0,0,0,0,0,0,0,0,0,0,0,0,0,0,0,0,0,0,0,0,0,0,0,0,0,0,0,0,0,0,0,0,0,0,0,0,0,0,0,0,0,0,0,0,0,0,0.4945,0.4944,0,0.4891,0.4891,0.489,0.4813,0.4812,0.481,0.4809,0.4757,0.4757,0.4757,0,0,0,0,0,0,0,0,0,0,0,0,0,0.4983,0.4983,0.4945,0.4944,0.4944,0.4892,0.4891,0.489,0.4813,0.4811,0.481,0.4808,0.4757,0.4757,0.4757,0,0,0,0,0,0,0,0,0,0,0,0,0,0.4952,0.4983,0.4945,0.4899,0.4894,0.4892,0.4891,0.489,0.4813,0.4811,0.4809,0.4808,0.4757,0.4757,0.4757,0.4796,0,0,0.4756,0.4756,0,0,0,0,0,0,0,0,0.4954,0.4951,0.4906,0.4902,0.4897,0.4857,0.4885,0.4858,0.4814,0.4844,0.4809,0.4807,0.4792,0.4789,0.4783,0.4793,0.4791,0.4756,0.4756,0.4756,0.4756,0,0,0,0,0,0,0,0.4956,0.4953,0.4924,0.4906,0.49,0.4882,0.4875,0.488,0.483,0.4841,0.4836,0.483,0.4789,0.4784,0.4781,0.479,0.4756,0.4756,0.4756,0.4756,0.4829,0.4831,0,0,0,0,0,0,0.4965,0.4955,0.4926,0.4922,0.4921,0.4883,0.4875,0.4872,0.483,0.4821,0.4832,0.4827,0.4785,0.4782,0.4779,0.4822,0.4756,0.4755,0.4755,0.4827,0.483,0.4832,0,0,0,0,0,0,0.4966,0.4963,0.4928,0.4937,0.4931,0.4884,0.4881,0.4872,0.4866,0.4823,0.4814,0.4835,0.4783,0.478,0.4792,0.4819,0.4755,0.4755,0.4825,0.4828,0.4831,0.4908,0,0,0,0,0,0,0.4967,0.4964,0.4978,0.4938,0.4931,0.4941,0.4883,0.4872,0.4866,0.4858,0.4824,0.4816,0.4781,0.4793,0.4792,0.4818,0.4755,0.4822,0.4826,0.483,0.4903,0.4913,0.4922,0,0,0,0,0,0.4969,0.5002,0.4979,0.4976,0.4947,0.4943,0.4939,0.4897,0.4868,0.4882,0.4854,0.4817,0.4816,0.4794,0.4793,0.4819,0.482,0.4825,0.483,0.4898,0.4911,0.4922,0,0,0,0,0,0,0.5047,0.4996,0.497,0.4991,0.4971,0.493,0.4946,0.4912,0.4902,0.4896,0.4846,0.4838,0.4857,0.4839,0.4816,0.4855,0.4813,0.4817,0.4866,0.4877,0.4887,0.4891,0.4755,0,0,0,0,0,0.5067,0.5067,0.5022,0.5045,0.5037,0.4993,0.499,0.4959,0.4938,0.493,0.4903,0.4884,0.4879,0.4877,0.4871,0.49,0.4891,0.4917,0.4927,0.4935,0.494,0.4954,0.4965,0.4847,0.4847,0.4847,0,0,0.5108,0.508,0.5083,0.506,0.5042,0.5043,0.4987,0.4991,0.4992,0.4931,0.494,0.492,0.4896,0.4916,0.4924,0.4902,0.497,0.4941,0.4948,0.4948,0.496,0.4971,0.4981,0.4851,0.485,0.4849,0,0,0.5183,0.5162,0.5178,0.5161,0.5133,0.5104,0.5108,0.5071,0.5054,0.5063,0.5017,0.5018,0.5011,0.4995,0.4987,0.5056,0.5021,0.5055,0.5106,0.512,0.513,0.5138,0.5162,0.5172,0.506,0.506,0.506,0,0.5237,0.5237,0.5191,0.5198,0.519,0.5133,0.515,0.5135,0.5108,0.5104,0.5079,0.5069,0.5048,0.5065,0.5082,0.5076,0.508,0.5059,0.5132,0.5139,0.5146,0.5169,0.5178,0.5064,0.5064,0.5063,0.5063,0,0.5305,0.5306,0.5323,0.5296,0.529,0.5302,0.5258,0.5257,0.5228,0.5201,0.5211,0.5185,0.5172,0.5173,0.5145,0.5186,0.5173,0.5141,0.5098,0.5162,0.5183,0.5191,0.507,0.5069,0.5068,0.5066,0,0,0.5428,0.5376,0.5383,0.537,0.5335,0.5335,0.5345,0.5331,0.5331,0.5314,0.5321,0.5316,0.5286,0.5277,0.5246,0.5258,0.5314,0.5225,0.5223,0.5242,0.5358,0.5382,0.5393,0.5291,0.5293,0.5294,0.536,0,0.5496,0.5509,0.5468,0.5491,0.5491,0.5437,0.5446,0.5426,0.5401,0.5398,0.5372,0.5369,0.533,0.5323,0.5333,0.5306,0.5337,0.53,0.5298,0.5298,0.5305,0.5403,0.5429,0.5492,0.5367,0.5369,0.537,0,0.5577,0.5564,0.5587,0.555,0.5549,0.5557,0.5541,0.5538,0.5515,0.5496,0.5485,0.5449,0.5457,0.5415,0.5425,0.5401,0.5397,0.5384,0.5385,0.5383,0.5338,0.5404,0.5512,0.5521,0.5382,0.5381,0.538,0,0.5665,0.5652,0.5664,0.5654,0.5612,0.5619,0.5602,0.5577,0.5571,0.5557,0.5553,0.5541,0.5535,0.5526,0.5488,0.5462,0.5502,0.5458,0.5487,0.5489,0.5499,0.5498,0.5607,0.5497,0.5497,0.5496,0.5496,0,0.5745,0.5761,0.5702,0.571,0.5726,0.5679,0.5697,0.5675,0.5653,0.5655,0.5609,0.5612,0.5562,0.556,0.553,0.5543,0.554,0.5526,0.5518,0.553,0.5532,0.5527,0.5521,0.5499,0.5498,0.5498,0.5497,0,0.5845,0.5806,0.5816,0.5775,0.5765,0.5779,0.5745,0.575,0.5723,0.5726,0.5725,0.5682,0.5677,0.5638,0.5625,0.5605,0.5629,0.5613,0.5637,0.5632,0.5663,0.5661,0.5772,0.5785,0.5667,0.5668,0.5669,0,0.5899,0.591,0.587,0.5868,0.5853,0.585,0.5844,0.5799,0.5794,0.5768,0.5777,0.5768,0.5759,0.5754,0.5722,0.5712,0.5695,0.5735,0.5693,0.5705,0.5695,0.5695,0.5696,0.5744,0.5745,0.5746,0.5747,0,0.5998,0.5978,0.5971,0.5956,0.595,0.5937,0.5921,0.5922,0.5872,0.5869,0.5863,0.5856,0.5842,0.5835,0.5819,0.5802,0.5767,0.5761,0.5767,0.578,0.5793,0.5786,0.5661,0.5758,0.5757,0.5756,0.5756,0.5755,0.6076,0.6084,0.6057,0.605,0.6033,0.6019,0.6022,0.5994,0.5988,0.5973,0.5947,0.5945,0.5921,0.5896,0.5882,0.588,0.586,0.5869,0.5871,0.5874,0.5881,0.5793,0.5877,0.5877,0.5877,0.5876,0.5876,0,0.6173,0.6153,0.6147,0.6126,0.612,0.6087,0.6067,0.6065,0.6064,0.6044,0.6036,0.6029,0.6022,0.5989,0.5978,0.5983,0.5966,0.5981,0.598,0.5977,0.59,0.5895,0.5995,0.5995,0.5995,0.5995,0.5995,0.5995,0.6223,0.6233,0.621,0.6212,0.6192,0.6189,0.6181,0.6168,0.6152,0.6146,0.6139,0.6118,0.6093,0.6079,0.6071,0.6062,0.606,0.608,0.6066,0.5994,0.5983,0.5972,0.5967,0.608,0.608,0.6143,0.6143,0.6144]},{"header":{"parameterUnit":"m.s-1","parameterCategory":1,"la1":30.2991,"la2":30.254,"lo1":-89.0895,"lo2":-89.0444,"dy":0.0017,"dx":0.0017,"nx":28,"ny":28,"refTime":"2024-05-16T21:00:00:Z","depth":0,"parameterNumber":3,"parameterNumberName":"V-component_of_WINDS"},"data":[0,0,0,0,0,0,0,0,0,0,0,0,0,0,0,0,0,0,0,0,0,0,0,0,0,0,0,0,0,0,0,0,0,0,0,0,0,0,0,0,0,0,0,0,0,0,0,0,0,0,0,0,0,0,0,0,0,0,4.6845,4.6846,0,4.696,4.6961,4.6963,4.6977,4.6976,4.6975,4.6974,4.7088,4.7092,4.7096,0,0,0,0,0,0,0,0,0,0,0,0,0,4.6636,4.664,4.6845,4.6847,4.6848,4.696,4.6961,4.6963,4.6977,4.6976,4.6975,4.6973,4.7086,4.7091,4.7096,0,0,0,0,0,0,0,0,0,0,0,0,0,4.6736,4.6641,4.6845,4.6869,4.6872,4.696,4.6961,4.6963,4.6978,4.6976,4.6974,4.6973,4.7085,4.7091,4.7097,4.7167,0,0,4.7115,4.7118,0,0,0,0,0,0,0,0,4.673,4.6744,4.6864,4.6867,4.6871,4.6953,4.6929,4.7032,4.6978,4.6937,4.6974,4.6972,4.7044,4.7053,4.7078,4.7173,4.7177,4.7116,4.712,4.7122,4.7124,0,0,0,0,0,0,0,4.6724,4.6739,4.689,4.6865,4.687,4.6873,4.6885,4.6949,4.6998,4.6941,4.6942,4.6956,4.7046,4.7072,4.7081,4.7179,4.7116,4.7121,4.7125,4.7127,4.7339,4.7341,0,0,0,0,0,0,4.6713,4.6733,4.6887,4.6894,4.6795,4.6878,4.6892,4.6928,4.6998,4.7007,4.6957,4.6956,4.7063,4.7074,4.7085,4.7174,4.7122,4.7128,4.7131,4.7337,4.734,4.7342,0,0,0,0,0,0,4.6708,4.6726,4.6882,4.6814,4.6834,4.6883,4.6924,4.6931,4.6958,4.701,4.7019,4.6976,4.7062,4.7077,4.7147,4.7178,4.7131,4.7136,4.7335,4.7338,4.7341,4.7351,0,0,0,0,0,0,4.6702,4.6724,4.6752,4.6815,4.6838,4.6943,4.6926,4.6935,4.6969,4.6969,4.703,4.7038,4.7062,4.7138,4.7154,4.7185,4.7141,4.7332,4.7336,4.734,4.7348,4.7353,4.7358,0,0,0,0,0,4.6694,4.6749,4.6753,4.6772,4.6874,4.6945,4.6958,4.6985,4.6971,4.6999,4.7033,4.7036,4.7172,4.7145,4.7163,4.7197,4.7331,4.7335,4.7339,4.7345,4.7352,4.7358,0,0,0,0,0,0,4.6687,4.6757,4.6763,4.684,4.6887,4.6947,4.6983,4.6991,4.7042,4.7039,4.707,4.7084,4.7153,4.7182,4.7151,4.727,4.725,4.7258,4.7248,4.7256,4.7261,4.7253,4.7146,0,0,0,0,0,4.6694,4.6748,4.6806,4.6868,4.6891,4.6933,4.6965,4.6983,4.7032,4.7051,4.709,4.7136,4.719,4.7224,4.7276,4.7352,4.7366,4.7384,4.7389,4.7394,4.74,4.7444,4.7453,4.7356,4.7356,4.7356,0,0,4.671,4.6755,4.6786,4.6868,4.6906,4.696,4.695,4.7007,4.7047,4.7059,4.7129,4.716,4.7214,4.7288,4.7323,4.7314,4.743,4.7399,4.7402,4.7407,4.745,4.7459,4.7467,4.7359,4.7359,4.7358,0,0,4.6766,4.6805,4.6862,4.6901,4.696,4.6988,4.7002,4.7062,4.7083,4.7155,4.7166,4.7213,4.7304,4.7343,4.7375,4.7448,4.7453,4.7464,4.7492,4.7534,4.7542,4.7549,4.7576,4.7586,4.747,4.747,4.7471,0,4.6777,4.686,4.689,4.6948,4.6983,4.6999,4.7057,4.7093,4.7165,4.7189,4.7179,4.7295,4.7332,4.7417,4.7435,4.746,4.7476,4.7457,4.7539,4.7546,4.7553,4.7579,4.7589,4.7472,4.7471,4.7471,4.7471,0,4.6872,4.6929,4.6968,4.704,4.708,4.7137,4.7175,4.7212,4.7226,4.7255,4.7328,4.7374,4.7436,4.7457,4.7471,4.7545,4.7538,4.7533,4.7513,4.7563,4.7588,4.7598,4.7473,4.7473,4.7472,4.7472,0,0,4.6925,4.7014,4.7028,4.7062,4.7129,4.7173,4.7232,4.7294,4.7326,4.7375,4.7425,4.7503,4.75,4.7536,4.7554,4.7591,4.7648,4.7582,4.7584,4.7594,4.7734,4.7738,4.7749,4.7652,4.7654,4.7656,4.773,0,4.6989,4.7096,4.7125,4.7214,4.7268,4.7285,4.7336,4.7383,4.7412,4.7461,4.7493,4.7548,4.7539,4.7561,4.7599,4.7633,4.7677,4.7628,4.7699,4.7701,4.7686,4.7762,4.7766,4.7833,4.774,4.7741,4.7742,0,4.7079,4.7133,4.7228,4.729,4.7314,4.736,4.7421,4.7468,4.7521,4.754,4.7581,4.7596,4.7658,4.7636,4.7721,4.7687,4.7718,4.774,4.7743,4.7751,4.7725,4.7772,4.7855,4.7865,4.7758,4.7757,4.7756,0,4.7109,4.7206,4.7276,4.7304,4.7378,4.741,4.7442,4.7494,4.753,4.7583,4.7607,4.7666,4.7698,4.7743,4.7774,4.7755,4.7857,4.7837,4.7875,4.7874,4.7896,4.7894,4.7985,4.7914,4.7914,4.7914,4.7914,0,4.7179,4.7237,4.7291,4.7334,4.74,4.7433,4.7497,4.7529,4.7576,4.7626,4.7643,4.7689,4.7726,4.7777,4.7802,4.787,4.7884,4.7901,4.7907,4.79,4.7898,4.792,4.7917,4.7917,4.7916,4.7915,4.7915,0,4.7224,4.7263,4.7341,4.7405,4.7423,4.7469,4.7524,4.7566,4.7597,4.7659,4.7676,4.7723,4.7785,4.782,4.7896,4.7913,4.7989,4.7992,4.7971,4.7974,4.801,4.8007,4.8119,4.8136,4.8053,4.8054,4.8055,0,4.7266,4.7312,4.7382,4.7418,4.7451,4.7507,4.7545,4.758,4.7619,4.7684,4.7719,4.7782,4.7834,4.7931,4.7972,4.8031,4.8036,4.8072,4.8045,4.8037,4.8038,4.8036,4.8041,4.8076,4.8077,4.8078,4.8078,0,4.7337,4.7355,4.741,4.7472,4.7518,4.7568,4.7618,4.7646,4.7689,4.7732,4.7796,4.7836,4.7916,4.7978,4.8041,4.8074,4.8084,4.8086,4.8099,4.8092,4.8079,4.8088,4.7985,4.8084,4.8083,4.8083,4.8082,4.8082,4.7383,4.7425,4.7482,4.7543,4.7585,4.7632,4.7676,4.7713,4.7767,4.7836,4.7853,4.792,4.7974,4.806,4.8094,4.8147,4.8141,4.8158,4.8162,4.8166,4.8168,4.807,4.8158,4.8158,4.8158,4.8158,4.8158,0,4.7456,4.7494,4.755,4.7621,4.7669,4.7676,4.7732,4.7772,4.7832,4.7882,4.7933,4.8008,4.8069,4.8115,4.8178,4.8211,4.8218,4.8227,4.8225,4.8233,4.8169,4.8153,4.8221,4.8221,4.8221,4.8221,4.8221,4.8221,4.75,4.7572,4.7596,4.7689,4.7727,4.7795,4.7826,4.787,4.791,4.7993,4.8044,4.8075,4.8124,4.819,4.8247,4.8259,4.8282,4.829,4.8303,4.8243,4.8237,4.823,4.8215,4.8295,4.8295,4.8362,4.8363,4.8363]}]]